Change the Weather History Date:

Tuesday, February 5, 2013

  Actual Average Record
Temperature  
Mean Temperature 73 °F -  
Max Temperature 80 °F 79 °F 87 °F (1986)
Min Temperature 66 °F 66 °F 62 °F (1998)
Cooling Degree Days 8    
Growing Degree Days 23 (Base 50)    
Moisture  
Dew Point 60 °F    
Average Humidity 62    
Maximum Humidity 70    
Minimum Humidity 50    
Precipitation  
Precipitation 0.00 in - - ()
Sea Level Pressure  
Sea Level Pressure 30.01 in    
Wind  
Wind Speed 6 mph (ESE)    
Max Wind Speed 12 mph    
Max Gust Speed -    
Visibility 10 miles    
Events      
Averages and records for this station are not official NWS values.
T = Trace of Precipitation, MM = Missing Value Source: NWS Daily Summary

Daily Weather History Graph

Daily Weather History Graph

Search for Another Location

Airport or City:

Trip Planner

Search our weather history database for the weather conditions in past years. The results will help you decide how hot, cold, wet, or windy it might be!

Date:

Astronomy

Feb. 05, 2013 Rise Set
Actual Time 6:57 AM HST 6:18 PM HST
Civil Twilight 6:34 AM HST 6:41 PM HST
Nautical Twilight 6:08 AM HST 7:07 PM HST
Astronomical Twilight 5:42 AM HST 7:34 PM HST
Moon 2:37 AM HST (2/5) 2:01 PM HST (2/5)
Length of Visible Light 12h 06m
Length of Day
11h 21m
Waning Crescent, 24% of the Moon is Illuminated
Feb 5
Waning Crescent
Feb 9
New
Feb 17
First Quarter
Feb 25
Full
Mar 4
Last Quarter

Hourly Weather History & Observations

Time (HST) Temp. Heat Index Dew Point Humidity Pressure Visibility Wind Dir Wind Speed Gust Speed Precip Events Conditions
12:53 AM 68.0 °F - 57.9 °F 70% 30.01 in 10.0 mi NNE 6.9 mph - N/A   Partly Cloudy
1:53 AM 70.0 °F - 57.9 °F 65% 30.00 in 10.0 mi Calm Calm - N/A   Clear
2:53 AM 68.0 °F - 57.0 °F 68% 30.00 in 10.0 mi NNE 9.2 mph - N/A   Scattered Clouds
3:53 AM 70.0 °F - 55.0 °F 59% 29.99 in 10.0 mi Calm Calm - N/A   Clear
4:53 AM 69.1 °F - 57.0 °F 65% 29.99 in 10.0 mi East 3.5 mph - N/A   Mostly Cloudy
5:53 AM 68.0 °F - 57.0 °F 68% 29.99 in 10.0 mi East 3.5 mph - N/A   Clear
6:53 AM 66.9 °F - 57.0 °F 70% 30.02 in 10.0 mi NE 6.9 mph - N/A   Mostly Cloudy
7:53 AM 71.1 °F - 60.1 °F 68% 30.03 in 10.0 mi SE 4.6 mph - N/A   Overcast
8:53 AM 75.0 °F - 60.1 °F 60% 30.05 in 10.0 mi East 5.8 mph - N/A   Overcast
9:53 AM 78.1 °F - 59.0 °F 52% 30.04 in 10.0 mi WNW 8.1 mph - N/A   Clear
10:53 AM 79.0 °F - 59.0 °F 50% 30.02 in 10.0 mi SW 6.9 mph - N/A   Clear
11:53 AM 80.1 °F 80.9 °F 60.1 °F 50% 30.01 in 10.0 mi WSW 10.4 mph - N/A   Clear
12:53 PM 79.0 °F - 62.1 °F 56% 29.99 in 10.0 mi SW 11.5 mph - N/A   Clear
1:53 PM 79.0 °F - 63.0 °F 58% 29.98 in 10.0 mi SW 10.4 mph - N/A   Overcast
2:53 PM 79.0 °F - 63.0 °F 58% 29.97 in 10.0 mi SSW 11.5 mph - N/A   Overcast
3:53 PM 77.0 °F - 63.0 °F 62% 29.97 in 10.0 mi SSW 9.2 mph - N/A   Overcast
4:53 PM 77.0 °F - 63.0 °F 62% 29.99 in 10.0 mi SSW 8.1 mph - N/A   Overcast
5:53 PM 75.9 °F - 63.0 °F 64% 30.00 in 10.0 mi SW 4.6 mph - 0.00 in   Overcast
6:53 PM 75.9 °F - 62.1 °F 62% 30.01 in 10.0 mi NW 6.9 mph - N/A   Overcast
7:53 PM 75.0 °F - 57.9 °F 55% 30.03 in 10.0 mi East 5.8 mph - N/A   Overcast
8:53 PM 73.9 °F - 57.9 °F 57% 30.04 in 10.0 mi NE 8.1 mph - N/A   Overcast
9:53 PM 71.1 °F - 59.0 °F 66% 30.04 in 10.0 mi ENE 3.5 mph - N/A   Clear
10:53 PM 70.0 °F - 59.0 °F 68% 30.04 in 10.0 mi ENE 3.5 mph - N/A   Clear
11:53 PM 70.0 °F - 57.9 °F 65% 30.02 in 10.0 mi ESE 3.5 mph - N/A   Clear